Location: Unspecified
(0.0000°N, 0.0000°E)
Time: 20:01:05
(UTC+02:00)

IUS-9 SRM-1 - Visible Passes

Search period start: 21 August 2014 00:00
Search period end: 31 August 2014 00:00
Orbit: 244 x 20734 km, 26.5° (Epoch: 20 August)

Date Brightness Start Highest point End Pass type
(mag) Time Alt. Az. Time Alt. Az. Time Alt. Az.
21 Aug 8.1 00:23:13 10° W 04:51:58 51° S 05:22:57 10° ESE visible
21 Aug 7.2 18:02:15 10° NNW 18:14:27 47° NE 21:32:42 12° ESE visible
22 Aug 8.0 00:40:16 10° W 05:11:31 52° S 05:37:18 10° ESE visible
22 Aug 7.3 18:15:41 10° NW 18:28:44 53° NE 21:51:09 14° ESE visible
23 Aug 7.9 00:57:46 10° W 05:29:28 53° S 05:51:21 10° E visible
23 Aug 7.4 18:28:58 10° NW 18:42:55 59° NE 22:39:37 10° ESE visible
24 Aug 7.6 01:15:56 10° W 05:46:16 54° S 06:05:07 10° E visible
24 Aug 7.4 18:42:04 10° NW 18:57:01 64° NE 23:02:09 10° ESE visible
25 Aug 7.4 01:35:00 10° W 06:02:11 56° S 06:18:35 10° E visible
25 Aug 7.5 18:55:00 10° NW 19:11:04 70° NE 23:22:46 10° ESE visible
26 Aug 7.2 01:55:20 10° W 06:17:22 58° SSE 06:31:47 10° E visible
26 Aug 7.6 19:07:47 10° NW 19:25:06 75° NE 23:41:56 10° ESE visible
27 Aug 6.9 02:17:32 10° WSW 06:31:57 61° SSE 06:44:43 10° E visible
27 Aug 7.8 19:20:23 10° NW 19:39:08 80° NE 23:59:57 10° ESE visible
28 Aug 6.7 02:42:34 10° WSW 06:45:59 64° SSE 06:57:23 10° E visible
28 Aug 7.9 19:32:50 10° WNW 19:53:14 85° NE 00:17:02 10° ESE visible
29 Aug 6.5 03:12:15 10° WSW 06:59:32 68° SSE 07:09:47 10° ENE visible
29 Aug 8.0 19:45:07 10° WNW 20:07:24 90° NNE 00:33:17 10° ESE visible
30 Aug 6.2 03:50:16 10° WSW 07:12:39 73° SSE 07:21:56 10° ENE visible
30 Aug 8.2 19:57:16 10° WNW 20:21:43 86° SSW 00:00:00 33° SE visible
